Regional Weather Roundup
Issued by NWS

Home | Current Version | Previous Version | Graphics & Text | Print | Product List | Glossary On
Versions: 1 2 3 4 5 6 7 8 9 10 11 12 13 14 15 16 17 18 19 20 21 22 23 24 25 26 27 28 29 30 31 32 33 34 35 36 37 38 39 40 41 42 43 44 45 46 47 48 49 50
558
ASUS43 KLMK 251110
RWRKY
KENTUCKY REGIONAL WEATHER ROUNDUP
NATIONAL WEATHER SERVICE LOUISVILLE KY
700 AM EDT SUN JUN 25 2017

NOTE "FAIR" INDICATES FEW OR NO CLOUDS BELOW 12,000 FEET
WITH NO SIGNIFICANT WEATHER AND/OR OBSTRUCTIONS TO VISIBILITY.

KYZ001>023-026-027-061>063-070>075-251200-
WESTERN AND SOUTH CENTRAL KENTUCKY

CITY           SKY/WX    TMP DP  RH WIND       PRES   REMARKS
PADUCAH        CLEAR     56  52  86 W3        30.19R
HENDERSON      NOT AVBL
OWENSBORO      CLEAR     57  54  89 CALM      30.19R
HOPKINSVILLE   CLEAR     58  54  86 CALM      30.20R
BOWLING GREEN  CLEAR     58  56  93 CALM      30.20R
GLASGOW        CLEAR    N/A N/A N/A CALM      30.20R
$$

KYZ024-025-028>034-038-045-046-053-251200-
NORTH CENTRAL KENTUCKY

CITY           SKY/WX    TMP DP  RH WIND       PRES   REMARKS
LOUISVILLE/SDF PTCLDY    60  54  80 SW3       30.17R
LOUISVILLE/LOU CLEAR     58  56  93 CALM      30.17R
FORT KNOX      CLEAR     54  54 100 CALM      30.17R
$$

KYZ035>037-039>044-047>052-055>060-089>105-251200-
NORTHEAST KENTUCKY

CITY           SKY/WX    TMP DP  RH WIND       PRES   REMARKS
LEXINGTON      CLEAR     57  53  86 CALM      30.18R
COVINGTON      PTCLDY    54  52  93 SW3       30.14R
FRANKFORT      CLEAR     55  51  86 CALM      30.16R
$$

KYZ054-064>069-076>088-106>120-251200-
SOUTHEAST KENTUCKY

CITY           SKY/WX    TMP DP  RH WIND       PRES   REMARKS
JACKSON        CLEAR     60  55  83 CALM      30.17R
LONDON         PTCLDY    58  56  93 CALM      30.19R
SOMERSET       CLEAR     55  55 100 CALM      30.21R
MIDDLESBORO    MOCLDY    58  58 100 CALM      30.19R
MONTICELLO     MOSUNNY   57  56  96 MISG      30.22R
$$





USA.gov is the U.S. government's official web portal to all federal, state and local government web resources and services.